Content
SEND FEEDBACK

Daily
Averages
Monthly
Summary
United States of America

LAKE NACIMIENTO, CALIFORNIA


Home > North America > United States > California
Elevation: 7710 feet     Latitude: 35 46N     Longitude: 120 53W

WEATHER
 
SELECT A DAY
Number of Records: 186,176;   Date Range: 1/1/95 - 8/30/14
 
SHARE

PRINT THIS DATA

[ ← Previous Day ]
WEATHER ALMANAC - FEBRUARY 13, 2013
[ Next Day → ]
[ °C ]   °F
Weather ElementAverageHighLow
Temperature43 °F66 °F (2:53 pm)32 °F (2:50 am)
Dewpoint34.1 °F39.9 °F (10:53 am)30.2 °F (1:45 am)
Humidity76.7 %100 % (3:53 am)29 % (2:53 pm)
Barometer30.29 in30.35 in (8:53 am)30.18 in (4:53 pm)
Wind Speed2.4 mph8.1 mph (4:53 pm)
Weather ElementAverage
Visibility6 mi
Wind DirectionENE (55.6 °)

Weather ElementTotal
Precipitation0.04 in
Heating Degree Days16 (Base 65)
Averaged from 34 records on February 13, 2013
WEATHER CONDITIONS BREAKOUT
WIND DIRECTION BREAKOUT
WEATHER BY HOUR - FEBRUARY 13, 2013
[ °C ]   °F
Local TimeTemperatureDewpointHumidityBarometerVisibilityWind DirectionWind SpeedGust SpeedPrecipitationEventsConditions
1:45 AM35.6 °F30.2 °F81 %30.31 in10.0 miCalmPartly Cloudy
1:53 AM34.0 °F30.9 °F89 %30.32 in10.0 miCalmClear
2:00 AM33.8 °F30.2 °F87 %30.32 in10.0 miCalmScattered Clouds
2:43 AM33.8 °F30.2 °F87 %30.32 in5.0 miCalmMostly Cloudy
2:50 AM32.0 °F30.2 °F93 %30.32 in1.2 miNE (50°)3.5 mphMostly Cloudy
2:53 AM33.1 °F30.9 °F92 %30.32 in0.5 miENE (70°)3.5 mphFogFog
3:01 AM33.8 °F32.0 °F93 %30.31 in0.2 miENE (60°)3.5 mphFogFog
3:53 AM35.1 °F35.1 °F100 %30.32 in0.2 miCalmFogFog
4:11 AM35.6 °F35.6 °F100 %30.31 in0.2 miEast (90°)3.5 mphFogFog
4:53 AM36.0 °F36.0 °F100 %30.32 in0.2 miCalm0.01 inFogFog
5:53 AM35.1 °F35.1 °F100 %30.32 in0.2 miEast (80°)3.5 mphFogFog
6:53 AM35.1 °F35.1 °F100 %30.33 in0.2 miEast (80°)3.5 mphFogFog
7:25 AM35.6 °F35.6 °F100 %30.32 in0.2 miCalmFogFog
7:53 AM36.0 °F35.1 °F97 %30.34 in0.2 miCalmFogFog
8:05 AM35.6 °F35.6 °F100 %30.33 in0.2 miCalmFogFog
8:26 AM35.6 °F35.6 °F100 %30.34 in0.5 miCalmFogFog
8:41 AM35.6 °F35.6 °F100 %30.34 in2.0 miCalm0.01 inMostly Cloudy
8:51 AM35.6 °F35.6 °F100 %30.34 in4.0 miCalm0.01 inMostly Cloudy
8:53 AM36.0 °F36.0 °F100 %30.35 in8.0 miCalm0.01 inScattered Clouds
9:53 AM42.1 °F37.9 °F85 %30.35 in10.0 miCalmClear
10:53 AM48.0 °F39.9 °F74 %30.33 in10.0 miNNW (340°)4.6 mphClear
11:53 AM54.0 °F37.0 °F53 %30.29 in10.0 miNNW (330°)3.5 mphClear
12:53 PM61.0 °F37.0 °F41 %30.25 in10.0 miCalmClear
1:53 PM64.9 °F35.1 °F33 %30.22 in10.0 miEast (90°)3.5 mphClear
2:53 PM66.0 °F33.1 °F29 %30.20 in10.0 miENE (60°)6.9 mphClear
3:53 PM66.0 °F34.0 °F30 %30.19 in10.0 miNE (50°)4.6 mphClear
4:53 PM64.9 °F34.0 °F32 %30.18 in10.0 miESE (110°)8.1 mphClear
5:53 PM57.0 °F34.0 °F42 %30.19 in10.0 miEast (90°)6.9 mphClear
6:53 PM51.1 °F33.1 °F50 %30.20 in10.0 miEast (100°)8.1 mphClear
7:53 PM51.1 °F33.1 °F50 %30.22 in10.0 miENE (70°)5.8 mphClear
8:53 PM45.0 °F33.1 °F63 %30.23 in10.0 miCalmClear
9:53 PM46.9 °F34.0 °F61 %30.23 in10.0 miCalmClear
10:53 PM39.9 °F32.0 °F73 %30.23 in10.0 miSE (130°)5.8 mphClear
11:53 PM41.0 °F33.1 °F73 %30.23 in10.0 miEast (90°)3.5 mphClear
Hourly data recorded from KPRB, located miles away from Lake Nacimiento, California







STORIES FROM OUR PARTNERS